Regional Weather Roundup
Issued by NWS New Orleans/Baton Rouge, LA

Home | Current Version | Previous Version | Graphics & Text | Print | Product List | Glossary On
Versions: 1 2 3 4 5 6 7 8 9 10 11 12 13 14 15 16 17 18 19 20 21 22 23 24 25 26 27 28 29 30 31 32 33 34 35 36 37 38 39 40 41 42 43 44 45 46 47 48 49 50
845
ASUS44 KLIX 230901
RWRLIX
NEW ORLEANS REGIONAL WEATHER ROUNDUP
NATIONAL WEATHER SERVICE NEW ORLEANS LA
400 AM CDT WED JUL 23 2014

NOTE: "FAIR" INDICATES FEW OR NO CLOUDS BELOW 12,000 FEET WITH NO
      SIGNIFICANT WEATHER AND/OR OBSTRUCTIONS TO VISIBILITY.
      SKY/WX - SKY CONDITION AND SIGNIFICANT WEATHER.
      TMP - AIR TEMPERATURE.     DP    - DEWPOINT TEMPERATURE.
      RH  - RELATIVE HUMIDITY.   PRES  - PRESSURE.
      HI  - HEAT INDEX.          WCI   - WIND CHILL INDEX.

*  THESE STATIONS ARE NOT NWS OR FAA STATIONS AND ARE NOT UNDER
   NWS QUALITY CONTROL.

LAZ038-040-048-061>063-065>067-069-231000-
SOUTHEAST LOUISIANA

CITY           SKY/WX    TMP DP  RH WIND       PRES   REMARKS
N.O. AUDUBON   NOT AVBL
N.O. INTL ARPT MOCLDY    78  73  84 NE7       30.00F
N.O. LAKEFRONT PTCLDY    78  73  84 NE10      30.00F
N.O. DOWNTOWN*   N/A     77  70  78 NE7       30.00F
SLIDELL        PTCLDY    71  68  90 N5        30.01S
BATON ROUGE    CLEAR     71  69  93 NE5       30.02S
BOOTHVILLE     MOCLDY    79  76  90 S5        30.00F
BELLE CHASSE   MOCLDY    76  72  87 NE5       30.00S
BOGALUSA*      FOG       70  66  89 CALM      30.04S VSB 1/2
GALLIANO*      NOT AVBL
NEW ROADS*       N/A     72  71  96 CALM      30.02S
GONZALES*        N/A     73  73 100 CALM      30.00F
HAMMOND*       CLEAR     70  68  94 CALM      30.03S
HOUMA*         PTCLDY    74  70  87 CALM      29.99F
PORT FOURCHON* SUNNY     79  73  83 CALM      30.01R

$$

MSZ070-080>082-231000-
SOUTHERN MISSISSIPPI

CITY           SKY/WX    TMP DP  RH WIND       PRES   REMARKS
MCCOMB         CLOUDY    69  67  93 CALM      30.05R FOG
GULFPORT       CLEAR     74  69  85 N3        30.01S
BILOXI         CLEAR     71  70  95 N6        30.01S
PASCAGOULA     CLEAR     70  69  97 CALM      30.02S FOG

$$

COASTAL OBSERVATIONS
LAKE AND NEARSHORE STATIONS

STATION/POSITION TIME  TEMP    WIND        PRES    WAVE
                       AIR SEA DIR/SP/G            HT/PER
                 (UTC) (F)     (DEG/KT/KT) (MB)    (FT/S)
PASCAGOULA       0800   75     360/  4/  5 1015.9
WAVELAND YACHT   0800   74      20/  5/  6 1016.0
GRAND ISLE       0800   76 84  270/  3/  4 1016.2
SOUTHWEST PASS   0800   81 85  190/  4/  6 1016.3
NEW CANAL        0800   78 82   80/  6/  8 1016.6
SHELL BEACH      0800   81 80   60/  5/  5 1015.8

OFFSHORE STATIONS

STATION/POSITION TIME  TEMP    WIND        PRES    WAVE
                       AIR SEA DIR/SP/G            HT/PER
                 (UTC) (F)     (DEG/KT/KT) (MB)    (FT/S)
64 S DAUPHIN ISL 0754   82 83  160/  6/  6 1016.6

$$




USA.gov is the U.S. government's official web portal to all federal, state and local government web resources and services.